Powrót do katalogu

COSMOS 2409

AktywnyNawigacjaPO
NORAD 28420·PAYLOAD·🇷🇺 Russia

Wystrzelony Sep 23, 2004 z Plesetsk Cosmodrome

Loading…

Następne Przeloty (najbliższe 24 godziny)

TLE

ŚwieżeSource: Space-Track

Epoka: Sep 14, 2026, 22:46 UTC

1 28420U 04037B   26257.94907733  .00000085  00000-0  52559-3 0  9996
2 28420  82.4792 272.8944 0014840  83.9781 276.2991 12.45325004998726

Śledź COSMOS 2409 w czasie rzeczywistym z AllMySat

Download on the App Store